Showing default

ANSER-FLW2, 58018

Orbit data source: Space-Track

ANSER-FLW2, 58018 is a payload satellite owned by INTA (ES) in SSO that was launched on Mon, 09 Oct 2023 UTC via a VEGA launch vehicle from the French Guiana (FRGUI). Payload-class satellites include a variety of spacecraft equipped with specific instruments for various scientific and technological missions. These include communications satellites like Starlink; space stations such as the ISS; scientific satellites like the Hubble; Earth observation satellites from companies like Planet Labs, Umbra, and HawkEye 360; GPS; miniature CubeSats for education and research; and military/defense satellites.

Loading next visibility...
Identifier
58018, 2023-155C
Orbit
SSO
Country
Flag of ESES / SPN
Related business
Manufacturer
INTA
Mission
Operational Civil Imaging
Bus & Motor
CUBESAT 3U, Unknown motor
Mass
4 kg wet, 4 kg dry
Launch date (UTC)
2023-10-09 (2 years ago)
Launch vehicle
VEGA
Launch site
French Guiana (FRGUI)
Object type
Payload
Rocket body
Debris
Shape & HBR
Box + 2 Pan, 0.1 m
Radar Cross Section
0.035 m², Small (<0.1 m²)

Expand to show TLE details & history
Last TLE update: 4 hours ago

TLE from 4 hours ago
0 ANSER-FLW2
1 58018U 23155C   25308.17326182  .00014590  00000-0  51188-3 0  9991
2 58018  97.5748  25.7396 0001306 112.6606 247.4772 15.29536807114384
Epoch: 2025-11-04T04:09Z
TLE epoch observation values (Epoch: 2025-11-04T04:09:29.821Z)
Latitude
-0.00001°
Longitude
-80.29874°
Altitude
480.637 km
Speed
7.625 km/s
True Right ascension
01h 42m 57s
True Declination
0° 00' 00"
Sunlit
Object was in full shadow at epoch
Visualization orbit readout
Latitude
Unknown
Longitude
Unknown
Altitude
Unknown
Speed
Unknown
Apparent Right ascension
Unknown
Apparent Declination
Unknown
Sunlit
N/A
Visualization observer readout
Local Sidereal Time
03:53:52
Azimuth
Unknown
Elevation
Unknown
Doppler factor
Unknown
Orbital elements
Apogee altitude
475.051 km
Perigee altitude
473.262 km
Semi-major axis
6,852.293 km
Eccentricity
0.00013
Inclination
97.5748°
RAAN
25.7396°
Arg. of periapsis
112.6606°
True anomaly
247.46338°
Mean anomaly
247.4772°
Eccentric anomaly
247.47029°
Mean motion
3.82639 °/min
Orbital period
94.08 mins
BSTAR
0.00051188
Loading maneuver chart data...
Computing Atmospheric mass density...
Loading historical data...
Loading historical data...
Loading historical data...
Loading historical data...
Loading historical data...
Loading historical data...
Loading historical data...

Documentation

Showing up to 5 results
|